Location: Coopersdale
(40.3556°N, 78.9372°W)
Time: 18:29:44
(UTC+00:00)

Transit 4A - Pass Details

Date: 28 January 2021
Orbit: 866 x 978 km, 66.8° (Epoch: 25 February)

Event Time Altitude Azimuth Distance (km) Brightness Sun altitude
Rises 06:32:09 0° 340° (NNW) 3,632 - -63.9°
Reaches altitude 10° 06:35:44 10° 360° (N) 2,661 - -63.5°
Maximum altitude 06:39:41 17° 39° (NE) 2,158 - -63.0°
Drops below altitude 10° 06:43:32 10° 79° (E) 2,603 - -62.5°
Sets 06:46:59 0° 99° (E) 3,518 - -62.1°
